Location: Leverkusen
(51.0459°N, 7.0192°E)
Time: 22:04:45
(UTC+01:00)

ISS - Pass Details

Date: 02 February 2019
Orbit: 403 x 411 km, 51.6° (Epoch: 16 February)

Event Time Altitude Azimuth Distance (km) Brightness Sun altitude
Rises 18:03:18 0° 268° (W) 2,332 1.8 -6.5°
Reaches altitude 10° 18:05:23 10° 270° (W) 1,473 0.4 -6.8°
Maximum altitude 18:08:42 79° 357° (N) 423 -3.8 -7.3°
Enters shadow 18:12:00 10° 85° (E) 1,474 -1.6 -7.8°
